User: anonymous   Login
Location: Unspecified
(0.0000°N, 0.0000°E)
Time: 01:02:28
(UTC+00:00)
Language:

TBA - TO BE ASSIGNED - Orbit

View from above orbital plane
View from above orbital plane
View from above satellite
View from above satellite

Ground track
Ground track

The orbit is defined by the following mean orbital elements,

1 68568U          26145.60968955 +.00000000 +00000-0 +90923-3 0 00008
2 68568  53.1591   5.1520 0001853  87.0017 273.1197 15.34409905    02
Epoch (UTC): 25 May 2026 14:37:57
Eccentricity: 0.0001853
inclination: 53.1591°
perigee height: 461 km
apogee height: 464 km
right ascension of ascending node: 5.1520°
argument of perigee: 87.0017°
revolutions per day: 15.34409905
mean anomaly at epoch: 273.1197°

The dashed part of the orbit path shows where the satellite is in the earth's shadow,  

DLR